When you browse on this site, cookies collect data to enhance your experience and personalize the content and advertising you see.
Visit our Privacy Policy to learn more. By continuing to use the site, you agree to this use of cookies and data.
  • In Österreich
  • Länderverzeichnis
  • Für 7 Tage
  • Wassertemperatur
  • Wetterkarte
  • News
  • Widgets
  • user-avatar
    Anmelden

    Stündliche Wetter Setubal

    Heute, 30 März, Montag

    Zeit Temperatur Niederschläge Wind Luftdruck Luftfeuchtigkeit
    00:00 +11°C° 0 mm 0 m/S 755 mmHg 83%
    01:00 +11°C° 0 mm 1 m/S 755 mmHg 83%
    02:00 +11°C° 0 mm 1 m/S 754 mmHg 83%
    03:00 +11°C° 0 mm 1 m/S 754 mmHg 83%
    04:00 +11°C° 0 mm 1 m/S 754 mmHg 83%
    05:00 +11°C° 0 mm 1 m/S 753 mmHg 83%
    06:00 +12°C° 0.2 mm 1 m/S 753 mmHg 81%
    07:00 +13°C° 0.2 mm 2 m/S 753 mmHg 79%
    08:00 +14°C° 0.2 mm 2 m/S 753 mmHg 77%
    09:00 +14°C° 0.8 mm 2 m/S 752 mmHg 79%
    10:00 +14°C° 0.8 mm 1 m/S 752 mmHg 81%
    11:00 +14°C° 0.8 mm 1 m/S 752 mmHg 83%
    12:00 +14°C° 0.3 mm 2 m/S 751 mmHg 84%
    13:00 +13°C° 0.3 mm 3 m/S 750 mmHg 84%
    14:00 +12°C° 0.3 mm 3 m/S 750 mmHg 85%
    15:00 +12°C° 0.1 mm 3 m/S 749 mmHg 85%
    16:00 +12°C° 0.1 mm 4 m/S 749 mmHg 85%
    17:00 +12°C° 0.1 mm 4 m/S 748 mmHg 85%
    18:00 +12°C° 0.3 mm 4 m/S 748 mmHg 87%
    19:00 +10°C° 0.3 mm 5 m/S 748 mmHg 90%
    20:00 +10°C° 0.3 mm 5 m/S 748 mmHg 92%
    21:00 +10°C° 1.7 mm 5 m/S 747 mmHg 93%
    22:00 +9°C° 1.7 mm 5 m/S 747 mmHg 93%
    23:00 +9°C° 1.7 mm 6 m/S 747 mmHg 93%

    Morgen, 31 März, Dienstag

    Zeit Temperatur Niederschläge Wind Luftdruck Luftfeuchtigkeit
    00:00 +8°C° 1.1 mm 6 m/S 746 mmHg 93%
    01:00 +8°C° 1.1 mm 6 m/S 746 mmHg 93%
    02:00 +8°C° 1.1 mm 6 m/S 746 mmHg 92%
    03:00 +8°C° 0.1 mm 5 m/S 746 mmHg 92%
    04:00 +7°C° 0.1 mm 5 m/S 745 mmHg 92%
    05:00 +7°C° 0.1 mm 4 m/S 745 mmHg 92%
    06:00 +8°C° 0 mm 4 m/S 745 mmHg 90%
    07:00 +8°C° 0 mm 4 m/S 746 mmHg 89%
    08:00 +10°C° 0 mm 3 m/S 746 mmHg 88%
    09:00 +11°C° 0.1 mm 3 m/S 746 mmHg 84%
    10:00 +12°C° 0.1 mm 3 m/S 746 mmHg 80%
    11:00 +15°C° 0.1 mm 2 m/S 746 mmHg 76%
    12:00 +14°C° 0.5 mm 3 m/S 746 mmHg 75%
    13:00 +14°C° 0.5 mm 4 m/S 746 mmHg 75%
    14:00 +15°C° 0.5 mm 4 m/S 745 mmHg 75%
    15:00 +13°C° 0.3 mm 4 m/S 746 mmHg 79%
    16:00 +12°C° 0.3 mm 5 m/S 746 mmHg 82%
    17:00 +9°C° 0.3 mm 5 m/S 746 mmHg 86%
    18:00 +9°C° 0 mm 5 m/S 747 mmHg 87%
    19:00 +8°C° 0 mm 5 m/S 748 mmHg 89%
    20:00 +8°C° 0 mm 5 m/S 749 mmHg 90%
    21:00 +8°C° 0 mm 5 m/S 750 mmHg 87%
    22:00 +8°C° 0 mm 5 m/S 750 mmHg 83%
    23:00 +8°C° 0 mm 4 m/S 751 mmHg 80%

    übermorgen, 1 April, Mittwoch

    Zeit Temperatur Niederschläge Wind Luftdruck Luftfeuchtigkeit
    00:00 +7°C° 0 mm 4 m/S 751 mmHg 80%
    01:00 +7°C° 0 mm 3 m/S 752 mmHg 79%
    02:00 +7°C° 0 mm 3 m/S 752 mmHg 79%
    03:00 +7°C° 0 mm 3 m/S 752 mmHg 78%
    04:00 +7°C° 0 mm 2 m/S 753 mmHg 77%
    05:00 +7°C° 0 mm 2 m/S 753 mmHg 76%
    06:00 +9°C° 0 mm 2 m/S 753 mmHg 74%
    07:00 +10°C° 0 mm 2 m/S 753 mmHg 73%
    08:00 +12°C° 0 mm 2 m/S 754 mmHg 71%
    09:00 +12°C° 0.1 mm 3 m/S 754 mmHg 67%
    10:00 +13°C° 0.1 mm 4 m/S 754 mmHg 63%
    11:00 +14°C° 0.1 mm 5 m/S 754 mmHg 59%
    12:00 +14°C° 0.3 mm 5 m/S 754 mmHg 60%
    13:00 +14°C° 0.3 mm 5 m/S 754 mmHg 60%
    14:00 +14°C° 0.3 mm 5 m/S 753 mmHg 61%
    15:00 +13°C° 0.1 mm 5 m/S 753 mmHg 64%
    16:00 +13°C° 0.1 mm 4 m/S 753 mmHg 66%
    17:00 +13°C° 0.1 mm 4 m/S 752 mmHg 68%
    18:00 +12°C° 1 mm 4 m/S 753 mmHg 75%
    19:00 +11°C° 1 mm 3 m/S 753 mmHg 82%
    20:00 +10°C° 1 mm 3 m/S 753 mmHg 89%
    21:00 +10°C° 2.3 mm 4 m/S 753 mmHg 90%
    22:00 +10°C° 2.3 mm 4 m/S 753 mmHg 91%
    23:00 +9°C° 2.3 mm 5 m/S 753 mmHg 92%

    2 April, Donnerstag

    Zeit Temperatur Niederschläge Wind Luftdruck Luftfeuchtigkeit
    00:00 +9°C° 0.9 mm 5 m/S 753 mmHg 92%
    01:00 +8°C° 0.9 mm 4 m/S 753 mmHg 91%
    02:00 +9°C° 0.9 mm 3 m/S 752 mmHg 91%
    03:00 +8°C° 0 mm 4 m/S 752 mmHg 92%
    04:00 +8°C° 0 mm 4 m/S 752 mmHg 92%
    05:00 +8°C° 0 mm 5 m/S 752 mmHg 93%
    06:00 +9°C° 0 mm 5 m/S 753 mmHg 89%
    07:00 +10°C° 0 mm 5 m/S 753 mmHg 85%
    08:00 +10°C° 0 mm 5 m/S 754 mmHg 81%
    09:00 +13°C° 0 mm 4 m/S 754 mmHg 73%
    10:00 +14°C° 0 mm 4 m/S 754 mmHg 66%
    11:00 +17°C° 0 mm 4 m/S 754 mmHg 58%
    12:00 +17°C° 0 mm 4 m/S 754 mmHg 55%
    13:00 +18°C° 0 mm 4 m/S 754 mmHg 53%
    14:00 +18°C° 0 mm 3 m/S 754 mmHg 51%
    15:00 +18°C° 0 mm 3 m/S 754 mmHg 55%
    16:00 +17°C° 0 mm 3 m/S 754 mmHg 58%
    17:00 +17°C° 0 mm 3 m/S 754 mmHg 62%
    18:00 +14°C° 0 mm 3 m/S 754 mmHg 67%
    19:00 +12°C° 0 mm 3 m/S 755 mmHg 72%
    20:00 +10°C° 0 mm 3 m/S 755 mmHg 77%
    21:00 +10°C° 0 mm 3 m/S 755 mmHg 79%
    22:00 +9°C° 0 mm 3 m/S 755 mmHg 81%
    23:00 +9°C° 0 mm 3 m/S 755 mmHg 83%

    3 April, Freitag

    Zeit Temperatur Niederschläge Wind Luftdruck Luftfeuchtigkeit
    00:00 +9°C° 0 mm 3 m/S 754 mmHg 84%
    01:00 +9°C° 0 mm 3 m/S 754 mmHg 84%
    02:00 +8°C° 0 mm 2 m/S 753 mmHg 85%
    03:00 +8°C° 0 mm 3 m/S 753 mmHg 85%
    04:00 +8°C° 0 mm 3 m/S 753 mmHg 85%
    05:00 +8°C° 0 mm 3 m/S 753 mmHg 85%
    06:00 +10°C° 0 mm 3 m/S 753 mmHg 79%
    07:00 +11°C° 0 mm 3 m/S 753 mmHg 73%
    08:00 +13°C° 0 mm 4 m/S 753 mmHg 66%
    09:00 +15°C° 0 mm 4 m/S 753 mmHg 61%
    10:00 +17°C° 0 mm 4 m/S 753 mmHg 55%
    11:00 +19°C° 0 mm 4 m/S 753 mmHg 49%
    12:00 +20°C° 0 mm 4 m/S 752 mmHg 48%
    13:00 +20°C° 0 mm 3 m/S 752 mmHg 47%
    14:00 +21°C° 0 mm 3 m/S 751 mmHg 47%
    15:00 +20°C° 0 mm 3 m/S 751 mmHg 51%
    16:00 +19°C° 0 mm 3 m/S 751 mmHg 56%
    17:00 +19°C° 0 mm 3 m/S 751 mmHg 61%
    18:00 +17°C° 0 mm 2 m/S 751 mmHg 63%
    19:00 +16°C° 0 mm 2 m/S 751 mmHg 66%
    20:00 +15°C° 0 mm 1 m/S 751 mmHg 68%
    21:00 +15°C° 0 mm 2 m/S 751 mmHg 69%
    22:00 +14°C° 0 mm 2 m/S 751 mmHg 70%
    23:00 +13°C° 0 mm 3 m/S 751 mmHg 71%

    4 April, Samstag

    Zeit Temperatur Niederschläge Wind Luftdruck Luftfeuchtigkeit
    00:00 +13°C° 0 mm 3 m/S 750 mmHg 72%
    01:00 +12°C° 0 mm 3 m/S 750 mmHg 73%
    02:00 +12°C° 0 mm 3 m/S 750 mmHg 75%
    03:00 +12°C° 0 mm 3 m/S 750 mmHg 75%
    04:00 +12°C° 0 mm 3 m/S 750 mmHg 75%
    05:00 +12°C° 0 mm 4 m/S 750 mmHg 75%
    06:00 +12°C° 0.1 mm 4 m/S 750 mmHg 77%
    07:00 +12°C° 0.1 mm 5 m/S 750 mmHg 78%
    08:00 +12°C° 0.1 mm 5 m/S 750 mmHg 80%
    09:00 +12°C° 0.2 mm 5 m/S 751 mmHg 82%
    10:00 +11°C° 0.2 mm 6 m/S 751 mmHg 84%
    11:00 +11°C° 0.2 mm 6 m/S 751 mmHg 86%
    12:00 +11°C° 0.2 mm 6 m/S 751 mmHg 87%
    13:00 +11°C° 0.2 mm 6 m/S 751 mmHg 88%
    14:00 +11°C° 0.2 mm 6 m/S 751 mmHg 89%
    15:00 +11°C° 0.2 mm 6 m/S 751 mmHg 89%
    16:00 +11°C° 0.2 mm 6 m/S 751 mmHg 89%
    17:00 +11°C° 0.2 mm 6 m/S 751 mmHg 89%
    18:00 +11°C° 0.1 mm 6 m/S 752 mmHg 90%
    19:00 +11°C° 0.1 mm 6 m/S 752 mmHg 90%
    20:00 +11°C° 0.1 mm 6 m/S 752 mmHg 90%
    21:00 +11°C° 0.1 mm 6 m/S 753 mmHg 91%
    22:00 +11°C° 0.1 mm 6 m/S 753 mmHg 92%
    23:00 +11°C° 0.1 mm 6 m/S 753 mmHg 93%
    Mehr zeigen